Location: Unspecified
(0.0000°N, 0.0000°E)
Time: 00:14:41
(UTC+00:00)

ISS - Pass Details

Date: 15 January 2022
Orbit: 413 x 422 km, 51.6° (Epoch: 27 January)

Event Time Altitude Azimuth Distance (km) Brightness Sun altitude
Exits shadow 04:38:45 19° 26° (NNE) 1,072 -1.7 -21.0°
Maximum altitude 04:39:50 22° 54° (NE) 967 -1.6 -20.8°
Drops below altitude 10° 04:42:32 10° 108° (ESE) 1,501 0.3 -20.2°
Sets 04:44:56 0° 123° (ESE) 2,368 1.6 -19.6°
